sat.trackr.live / text

‹ back to catalog

QIANFAN-123

NORAD 68650 · 2026-075Q

PAYLOAD ACTIVE UNKNOWN

§ Identity

Operator
Country
PRC
Launch date
2026-04-07
Launch site
WSC
Launch vehicle
Mass (kg)
RCS (m²)

External: N2YO · Heavens-Above · Gunter

§ Orbital elements

Epoch: 2026-09-19T21:20:25.736928Z

Period
106.59 min
Inclination
88.9861°
Eccentricity
0.0002091
Mean motion
13.51020295 rev/d
Perigee alt
1,066.9 km
Apogee alt
1,070.1 km
Semi-major
7,446.6 km
B*
3.3647e-5
RAAN
311.3133°
Arg perigee
81.5534°
Mean anomaly
278.5854°
Rev number
2,257

§ Raw data

QIANFAN-1231 68650U 26075Q   26262.88918677  .00000034  00000+0  33647-4 0  99902 68650  88.9861 311.3133 0002091  81.5534 278.5854 13.51020295 22573

JSON: /api/v1/satellites/68650 · /tle

For live sub-satellite position, see the globe view (requires WebGL).

§ Visibility from observer

Set your observer location to see the next 7 days of passes ≥ 10°. The values pass through the URL so the page stays shareable.

No JS? Fill the form by hand. The geolocation button needs JavaScript.